DW9210 Weather Reports


Display with metric or nautical units.
time (UTC)temp
F
wind
direction
speed
MPH
gust
MPH
rain 1hr
in
rain 24hr
in
rain mn
in
humidity
%
barometer
mb
20260508124503 51 199 1.0 3.0 0.00 0.00 0.00 76 1015.8
20260508124003 51 206 1.0 5.0 0.00 0.00 0.00 77 1015.8
20260508123503 50 207 2.0 6.0 0.00 0.00 0.00 79 1015.8
20260508123003 49 197 2.0 6.0 0.00 0.00 0.00 80 1015.8
20260508122503 48 192 1.0 5.0 0.00 0.00 0.00 84 1015.8
20260508122003 47 202 1.0 4.0 0.00 0.00 0.00 87 1015.7
20260508121503 46 192 1.0 4.0 0.00 0.00 0.00 90 1015.7
20260508121003 46 172 1.0 4.0 0.00 0.00 0.00 95 1015.7
20260508120503 45 170 1.0 2.0 0.00 0.00 0.00 97 1015.7
20260508120024 44 180 1.0 2.0 0.00 0.00 0.00 97 1015.7
20260508115503 42 179 0.0 2.0 0.00 0.00 0.00 97 1015.7
20260508115003 41 170 0.0 1.0 0.00 0.00 0.00 97 1015.7
20260508114503 40 180 0.0 1.0 0.00 0.00 0.00 97 1015.6
20260508114003 39 182 0.0 1.0 0.00 0.00 0.00 97 1015.6
20260508113503 38 0 0.0 0.0 0.00 0.00 0.00 96 1015.5
20260508113004 37 0 0.0 0.0 0.00 0.00 0.00 96 1015.5
20260508112503 37 0 0.0 0.0 0.00 0.00 0.00 96 1015.4
20260508112003 36 0 0.0 0.0 0.00 0.00 0.00 96 1015.4
20260508111503 36 0 0.0 0.0 0.00 0.00 0.00 96 1015.3
20260508111003 36 0 0.0 0.0 0.00 0.00 0.00 95 1015.3
20260508110503 35 0 0.0 0.0 0.00 0.00 0.00 95 1015.3
20260508110003 35 0 0.0 0.0 0.00 0.00 0.00 95 1015.3
20260508105503 35 0 0.0 0.0 0.00 0.00 0.00 95 1015.2
20260508105003 35 0 0.0 0.0 0.00 0.00 0.00 95 1015.1
20260508104524 36 0 0.0 0.0 0.00 0.00 0.00 95 1015.0
20260508104003 36 0 0.0 0.0 0.00 0.00 0.00 95 1015.0
20260508103524 36 0 0.0 0.0 0.00 0.00 0.00 95 1015.1
20260508103003 36 0 0.0 0.0 0.00 0.00 0.00 95 1015.0
20260508102503 36 0 0.0 0.0 0.00 0.00 0.00 95 1015.0
20260508102003 36 0 0.0 0.0 0.00 0.00 0.00 95 1015.1
20260508101503 36 0 0.0 0.0 0.00 0.00 0.00 95 1015.0
20260508101003 36 0 0.0 0.0 0.00 0.00 0.00 95 1015.0
20260508100503 36 167 0.0 1.0 0.00 0.00 0.00 95 1015.0
20260508100003 36 167 0.0 1.0 0.00 0.00 0.00 95 1014.9
20260508095503 35 167 0.0 1.0 0.00 0.00 0.00 95 1015.0
20260508095003 36 167 0.0 1.0 0.00 0.00 0.00 95 1014.9
20260508094503 36 0 0.0 0.0 0.00 0.00 0.00 95 1014.9
20260508094003 36 0 0.0 0.0 0.00 0.00 0.00 95 1014.9
20260508093524 36 0 0.0 0.0 0.00 0.00 0.00 95 1015.0
20260508093003 36 0 0.0 0.0 0.00 0.00 0.00 95 1014.9
20260508092503 36 0 0.0 0.0 0.00 0.00 0.00 95 1015.0
20260508092024 36 0 0.0 0.0 0.00 0.00 0.00 95 1014.9
20260508091503 36 0 0.0 0.0 0.00 0.00 0.00 94 1014.9
20260508091003 36 162 0.0 1.0 0.00 0.00 0.00 95 1014.9
20260508090503 36 159 0.0 1.0 0.00 0.00 0.00 95 1014.8
20260508090003 36 155 0.0 1.0 0.00 0.00 0.00 95 1014.7
20260508085524 36 155 0.0 1.0 0.00 0.00 0.00 94 1014.8
20260508085003 36 155 0.0 1.0 0.00 0.00 0.00 94 1014.8
20260508084524 36 155 0.0 1.0 0.00 0.00 0.00 94 1014.8
20260508084003 36 155 0.0 1.0 0.00 0.00 0.00 95 1014.9
20260508083503 36 155 0.0 1.0 0.00 0.00 0.00 94 1014.9
20260508083003 36 0 0.0 0.0 0.00 0.00 0.00 94 1014.7
20260508082503 37 155 0.0 1.0 0.00 0.00 0.00 95 1014.8
20260508082003 37 157 0.0 2.0 0.00 0.00 0.00 95 1014.8
20260508081503 37 174 1.0 2.0 0.00 0.00 0.00 95 1014.8
20260508081003 36 199 0.0 2.0 0.00 0.00 0.00 95 1014.8
20260508080503 36 0 0.0 0.0 0.00 0.00 0.00 94 1014.8
20260508080003 36 0 0.0 0.0 0.00 0.00 0.00 94 1014.9
20260508075524 36 0 0.0 0.0 0.00 0.00 0.00 94 1014.9
20260508075003 37 0 0.0 0.0 0.00 0.00 0.00 94 1014.8
20260508074524 37 0 0.0 0.0 0.00 0.00 0.00 94 1014.8
20260508074003 37 284 0.0 1.0 0.00 0.00 0.00 94 1014.8
20260508073503 37 283 0.0 1.0 0.00 0.00 0.00 94 1014.8
20260508073003 37 283 0.0 1.0 0.00 0.00 0.00 94 1014.8
20260508072503 37 0 0.0 0.0 0.00 0.00 0.00 94 1014.8
20260508072024 37 282 0.0 1.0 0.00 0.00 0.00 94 1014.8
20260508071503 37 284 0.0 1.0 0.00 0.00 0.00 94 1014.8
20260508071003 37 285 0.0 1.0 0.00 0.00 0.00 94 1014.9
20260508070503 37 0 0.0 0.0 0.00 0.00 0.00 94 1014.8
20260508070003 37 0 0.0 0.0 0.00 0.00 0.00 94 1014.8
20260508065524 37 0 0.0 0.0 0.00 0.00 0.00 94 1014.8
20260508065024 38 289 0.0 1.0 0.00 0.00 0.00 94 1014.8
20260508064524 38 284 0.0 1.0 0.00 0.00 0.00 94 1014.9
20260508064003 37 283 0.0 1.0 0.00 0.00 0.00 94 1014.9
20260508063524 37 0 0.0 0.0 0.00 0.00 0.00 94 1014.9
20260508063003 38 0 0.0 0.0 0.00 0.00 0.00 93 1014.9
20260508062503 38 0 0.0 0.0 0.00 0.00 0.00 94 1014.9
20260508062003 38 0 0.0 0.0 0.00 0.00 0.00 94 1014.9
20260508061503 38 0 0.0 0.0 0.00 0.00 0.00 94 1014.9
20260508061003 38 0 0.0 0.0 0.00 0.00 0.00 93 1015.0
20260508060524 38 0 0.0 0.0 0.00 0.00 0.00 93 1015.1
20260508060003 38 0 0.0 0.0 0.00 0.00 0.00 93 1015.2
20260508055503 38 0 0.0 0.0 0.00 0.00 0.00 93 1015.1
20260508055003 38 0 0.0 0.0 0.00 0.00 0.00 93 1015.2
20260508054503 39 0 0.0 0.0 0.00 0.00 0.00 93 1015.2
20260508054003 38 283 0.0 1.0 0.00 0.00 0.00 93 1015.2
20260508053503 39 283 0.0 1.0 0.00 0.00 0.00 92 1015.3
20260508053024 39 283 0.0 1.0 0.00 0.00 0.00 93 1015.2
20260508052503 39 283 0.0 1.0 0.00 0.00 0.00 93 1015.2
20260508052003 39 284 0.0 1.0 0.00 0.00 0.00 93 1015.2
20260508051503 39 0 0.0 0.0 0.00 0.00 0.00 93 1015.3
20260508051003 39 0 0.0 0.0 0.00 0.00 0.00 92 1015.2
20260508050503 39 283 0.0 1.0 0.00 0.00 0.00 93 1015.1
20260508050003 40 283 0.0 1.0 0.00 0.00 0.00 93 1015.1
20260508045503 40 283 0.0 1.0 0.00 0.00 0.00 93 1015.1
20260508045024 40 0 0.0 0.0 0.00 0.00 0.00 92 1015.1
20260508044503 40 0 0.0 0.0 0.00 0.00 0.00 92 1015.0
20260508044003 40 0 0.0 0.0 0.00 0.00 0.00 92 1015.0
20260508043503 40 0 0.0 0.0 0.00 0.00 0.00 92 1015.0
20260508043003 40 0 0.0 0.0 0.00 0.00 0.00 92 1014.9
20260508042524 40 0 0.0 0.0 0.00 0.00 0.00 92 1015.0
20260508042003 40 0 0.0 0.0 0.00 0.00 0.00 91 1015.1
20260508041503 40 0 0.0 0.0 0.00 0.00 0.00 91 1015.0
20260508041003 40 0 0.0 0.0 0.00 0.00 0.00 91 1015.1
20260508040503 40 0 0.0 0.0 0.00 0.00 0.00 90 1015.0
20260508040003 41 283 0.0 1.0 0.00 0.00 0.00 91 1015.1
20260508035503 41 283 0.0 1.0 0.00 0.00 0.00 90 1015.0
20260508035003 41 0 0.0 0.0 0.00 0.00 0.00 90 1015.0
20260508034503 41 0 0.0 0.0 0.00 0.00 0.00 90 1015.0
20260508034003 41 0 0.0 0.0 0.00 0.00 0.00 91 1015.1
20260508033503 41 0 0.0 0.0 0.00 0.00 0.00 91 1015.1
20260508033003 42 0 0.0 0.0 0.00 0.00 0.00 90 1015.1
20260508032503 42 0 0.0 0.0 0.00 0.00 0.00 90 1015.2
20260508032003 42 0 0.0 0.0 0.00 0.00 0.00 89 1015.2
20260508031503 42 0 0.0 0.0 0.00 0.00 0.00 88 1015.2
20260508031003 42 0 0.0 0.0 0.00 0.00 0.00 88 1015.2
20260508030503 42 0 0.0 0.0 0.00 0.00 0.00 88 1015.2
20260508030003 43 0 0.0 0.0 0.00 0.00 0.00 87 1015.2
20260508025503 43 0 0.0 0.0 0.00 0.00 0.00 86 1015.2
20260508025003 43 0 0.0 0.0 0.00 0.00 0.00 87 1015.2
20260508024503 44 0 0.0 0.0 0.00 0.00 0.00 86 1015.2
20260508024003 44 0 0.0 0.0 0.00 0.00 0.00 86 1015.1
20260508023503 44 283 0.0 1.0 0.00 0.00 0.00 85 1015.1
20260508023003 44 283 0.0 1.0 0.00 0.00 0.00 85 1015.1
20260508022524 44 0 0.0 0.0 0.00 0.00 0.00 84 1015.0
20260508022003 45 0 0.0 0.0 0.00 0.00 0.00 83 1015.0
20260508021524 45 0 0.0 0.0 0.00 0.00 0.00 82 1014.9
20260508021024 46 282 0.0 2.0 0.00 0.00 0.00 80 1014.9
20260508020524 46 286 0.0 2.0 0.00 0.00 0.00 79 1014.9
20260508020003 46 291 1.0 2.0 0.00 0.00 0.00 80 1014.8
20260508015503 47 297 0.0 1.0 0.00 0.00 0.00 77 1014.7
20260508015003 47 0 0.0 0.0 0.00 0.00 0.00 77 1014.6
20260508014503 48 0 0.0 0.0 0.00 0.00 0.00 76 1014.5
20260508014003 48 0 0.0 0.0 0.00 0.00 0.00 75 1014.5
20260508013503 48 297 0.0 1.0 0.00 0.00 0.00 72 1014.3
20260508013003 49 297 0.0 1.0 0.00 0.00 0.00 72 1014.3
20260508012524 49 305 0.0 1.0 0.00 0.00 0.00 71 1014.3
20260508012003 49 305 0.0 1.0 0.00 0.00 0.00 69 1014.3
20260508011503 50 0 0.0 0.0 0.00 0.00 0.00 68 1014.2
20260508011003 51 0 0.0 0.0 0.00 0.00 0.00 67 1014.2
20260508010503 51 0 0.0 0.0 0.00 0.00 0.00 65 1014.1
20260508010024 52 0 0.0 0.0 0.00 0.00 0.00 69 1014.0
20260508005524 52 0 0.0 0.0 0.00 0.00 0.00 67 1013.9
20260508005003 53 296 0.0 1.0 0.00 0.00 0.00 66 1013.9
20260508004503 53 296 0.0 1.0 0.00 0.00 0.00 65 1013.9
20260508004003 54 299 0.0 2.0 0.00 0.00 0.00 61 1013.9
20260508003503 54 298 1.0 2.0 0.00 0.00 0.00 60 1013.8
20260508003003 55 300 2.0 2.0 0.00 0.00 0.00 59 1013.7
20260508002503 56 302 2.0 2.0 0.00 0.00 0.00 56 1013.6
20260508002003 56 303 2.0 2.0 0.00 0.00 0.00 53 1013.6
20260508001503 56 304 1.0 2.0 0.00 0.00 0.00 50 1013.5
20260508001003 56 307 2.0 3.0 0.00 0.00 0.00 50 1013.5
20260508000503 56 306 2.0 3.0 0.00 0.00 0.00 49 1013.5
20260508000003 57 301 2.0 4.0 0.00 0.00 0.00 49 1013.5
20260507235503 57 299 2.0 4.0 0.00 0.00 0.00 48 1013.5
20260507235003 57 297 2.0 5.0 0.00 0.00 0.00 48 1013.4
20260507234503 58 295 3.0 5.0 0.00 0.00 0.00 48 1013.5
20260507234003 58 295 3.0 5.0 0.00 0.00 0.00 47 1013.4
20260507233503 59 299 3.0 5.0 0.00 0.00 0.00 47 1013.3
20260507233003 60 301 2.0 4.0 0.00 0.00 0.00 45 1013.3
20260507232503 60 292 2.0 4.0 0.00 0.00 0.00 46 1013.3
20260507232024 60 283 3.0 5.0 0.00 0.00 0.00 43 1013.3
20260507231503 60 283 4.0 7.0 0.00 0.00 0.00 42 1013.4
20260507231024 60 287 4.0 7.0 0.00 0.00 0.00 44 1013.4
20260507230503 61 295 4.0 6.0 0.00 0.00 0.00 44 1013.4
20260507230003 61 296 4.0 7.0 0.00 0.00 0.00 43 1013.4
20260507225503 62 296 3.0 7.0 0.00 0.00 0.00 44 1013.4
20260507225003 62 301 3.0 6.0 0.00 0.00 0.00 42 1013.3
20260507224524 63 308 3.0 6.0 0.00 0.00 0.00 42 1013.3
20260507224003 62 331 2.0 6.0 0.00 0.00 0.00 42 1013.2
20260507223503 62 315 3.0 6.0 0.00 0.00 0.00 43 1013.2
20260507223003 62 296 3.0 6.0 0.00 0.00 0.00 44 1013.2
20260507222503 63 292 3.0 7.0 0.00 0.00 0.00 43 1013.3
20260507222024 63 288 3.0 7.0 0.00 0.00 0.00 42 1013.3
20260507221503 63 285 4.0 8.0 0.00 0.00 0.00 44 1013.3
20260507221003 63 294 4.0 8.0 0.00 0.00 0.00 42 1013.5
20260507220524 63 295 3.0 7.0 0.00 0.00 0.00 39 1013.4
20260507220003 63 288 4.0 10.0 0.00 0.00 0.00 43 1013.4
20260507215503 63 286 4.0 10.0 0.00 0.00 0.00 41 1013.4
20260507215003 64 278 5.0 8.0 0.00 0.00 0.00 44 1013.4
20260507214503 63 292 4.0 8.0 0.00 0.00 0.00 40 1013.4
20260507214003 63 303 4.0 8.0 0.00 0.00 0.00 44 1013.2
20260507213503 64 291 4.0 8.0 0.00 0.00 0.00 45 1013.2
20260507213003 63 302 3.0 6.0 0.00 0.00 0.00 36 1013.2
20260507212524 63 312 3.0 7.0 0.00 0.00 0.00 44 1013.1
20260507212003 63 314 4.0 9.0 0.00 0.00 0.00 44 1013.0
20260507211524 63 308 5.0 11.0 0.00 0.00 0.00 45 1013.1
20260507211024 63 296 4.0 11.0 0.00 0.00 0.00 40 1013.0
20260507210524 63 317 3.0 7.0 0.00 0.00 0.00 41 1013.1
20260507210003 64 307 4.0 10.0 0.00 0.00 0.00 43 1013.1
20260507205503 64 292 4.0 10.0 0.00 0.00 0.00 41 1013.0
20260507205003 64 289 5.0 10.0 0.00 0.00 0.00 39 1013.0
20260507204503 64 282 5.0 8.0 0.00 0.00 0.00 44 1013.1
20260507204003 64 282 5.0 11.0 0.00 0.00 0.00 44 1013.1
20260507203524 64 282 5.0 11.0 0.00 0.00 0.00 44 1013.1
20260507203003 64 283 5.0 9.0 0.00 0.00 0.00 40 1013.0
20260507202503 63 306 4.0 8.0 0.00 0.00 0.00 47 1013.0
20260507202003 63 310 5.0 10.0 0.00 0.00 0.00 37 1013.0
20260507201503 63 284 5.0 13.0 0.00 0.00 0.00 44 1013.0
20260507201003 63 268 4.0 13.0 0.00 0.00 0.00 43 1013.1
20260507200524 63 283 4.0 9.0 0.00 0.00 0.00 46 1013.2
20260507200003 63 304 5.0 8.0 0.00 0.00 0.00 44 1013.2
20260507195503 63 309 4.0 8.0 0.00 0.00 0.00 43 1013.2
20260507195003 63 336 3.0 8.0 0.00 0.00 0.00 48 1013.2
20260507194503 62 3 3.0 8.0 0.00 0.00 0.00 41 1013.1
20260507194003 62 320 4.0 9.0 0.00 0.00 0.00 44 1013.3
20260507193524 63 291 5.0 9.0 0.00 0.00 0.00 43 1013.3
20260507193003 63 298 4.0 12.0 0.00 0.00 0.00 50 1013.2
20260507192503 63 318 4.0 12.0 0.00 0.00 0.00 48 1013.2
20260507192003 62 326 3.0 9.0 0.00 0.00 0.00 45 1013.3
20260507191503 62 284 3.0 8.0 0.00 0.00 0.00 42 1013.2
20260507191003 62 284 4.0 9.0 0.00 0.00 0.00 43 1013.4
20260507190503 63 281 5.0 9.0 0.00 0.00 0.00 47 1013.5
20260507190004 63 281 6.0 12.0 0.00 0.00 0.00 43 1013.5
20260507185503 62 302 5.0 12.0 0.00 0.00 0.00 49 1013.6
20260507185003 62 316 4.0 9.0 0.00 0.00 0.00 49 1013.6
20260507184503 62 301 3.0 7.0 0.00 0.00 0.00 46 1013.6
20260507184003 62 299 4.0 13.0 0.00 0.00 0.00 47 1013.6
20260507183503 62 289 5.0 13.0 0.00 0.00 0.00 47 1013.5
20260507183024 62 298 5.0 10.0 0.00 0.00 0.00 52 1013.6
20260507182524 62 294 5.0 13.0 0.00 0.00 0.00 49 1013.6
20260507182003 62 286 5.0 13.0 0.00 0.00 0.00 50 1013.7
20260507181503 61 297 4.0 8.0 0.00 0.00 0.00 56 1013.7
20260507181003 61 294 4.0 7.0 0.00 0.00 0.00 50 1013.7
20260507180503 61 268 3.0 7.0 0.00 0.00 0.00 55 1013.7
20260507180003 60 256 4.0 9.0 0.00 0.00 0.00 42 1013.7
20260507175503 60 290 5.0 9.0 0.00 0.00 0.00 46 1013.8
20260507175003 61 310 5.0 10.0 0.00 0.00 0.00 46 1013.9
20260507174503 61 283 5.0 11.0 0.00 0.00 0.00 47 1013.7
20260507174003 60 264 4.0 11.0 0.00 0.00 0.00 54 1013.7
20260507173524 60 262 4.0 11.0 0.00 0.00 0.00 48 1014.0
20260507173004 60 256 5.0 12.0 0.00 0.00 0.00 48 1014.2
20260507172503 61 254 5.0 12.0 0.00 0.00 0.00 51 1014.2
20260507172003 60 269 5.0 11.0 0.00 0.00 0.00 45 1014.3
20260507171503 61 280 5.0 9.0 0.00 0.00 0.00 56 1014.4
20260507171003 60 277 4.0 9.0 0.00 0.00 0.00 56 1014.5
20260507170524 60 272 4.0 10.0 0.00 0.00 0.00 53 1014.5
20260507170024 60 285 5.0 11.0 0.00 0.00 0.00 56 1014.7
20260507165503 60 306 5.0 11.0 0.00 0.00 0.00 55 1014.8
20260507165003 60 333 4.0 9.0 0.00 0.00 0.00 52 1014.7
20260507164503 60 304 5.0 11.0 0.00 0.00 0.00 53 1014.8
20260507164003 60 286 4.0 11.0 0.00 0.00 0.00 53 1014.7
20260507163524 60 288 4.0 10.0 0.00 0.00 0.00 60 1014.6
20260507163003 60 279 4.0 11.0 0.00 0.00 0.00 51 1014.7
20260507162503 60 272 4.0 11.0 0.00 0.00 0.00 54 1014.7
20260507162024 59 277 4.0 10.0 0.00 0.00 0.00 54 1014.8
20260507161503 59 296 5.0 10.0 0.00 0.00 0.00 56 1014.9
20260507161024 59 290 6.0 10.0 0.00 0.00 0.00 50 1014.8
20260507160503 59 289 5.0 10.0 0.00 0.00 0.00 51 1014.9
20260507160003 59 296 4.0 8.0 0.00 0.00 0.00 56 1014.8
20260507155524 59 289 4.0 8.0 0.00 0.00 0.00 59 1014.9
20260507155003 59 283 5.0 8.0 0.00 0.00 0.00 58 1014.9
20260507154503 58 290 4.0 8.0 0.00 0.00 0.00 59 1015.0
20260507154003 59 299 5.0 10.0 0.00 0.00 0.00 53 1014.9
20260507153504 59 292 5.0 10.0 0.00 0.00 0.00 58 1014.9
20260507153003 58 284 4.0 9.0 0.00 0.00 0.00 51 1014.8
20260507152503 58 284 4.0 7.0 0.00 0.00 0.00 54 1014.8
20260507152003 58 286 3.0 7.0 0.00 0.00 0.00 60 1014.7
20260507151524 57 301 3.0 8.0 0.00 0.00 0.00 54 1014.6
20260507151003 57 339 4.0 9.0 0.00 0.00 0.00 50 1014.7
20260507150503 57 354 4.0 9.0 0.00 0.00 0.00 52 1014.7
20260507150003 57 328 4.0 7.0 0.00 0.00 0.00 52 1014.7
20260507145503 57 314 4.0 9.0 0.00 0.00 0.00 54 1014.7
20260507145003 57 351 3.0 9.0 0.00 0.00 0.00 54 1014.7
20260507144503 56 330 4.0 8.0 0.00 0.00 0.00 55 1014.7
20260507144024 56 298 4.0 8.0 0.00 0.00 0.00 54 1014.7
20260507143503 56 358 3.0 8.0 0.00 0.00 0.00 59 1014.6
20260507143003 56 358 4.0 8.0 0.00 0.00 0.00 59 1014.6
20260507142503 56 335 3.0 7.0 0.00 0.00 0.00 61 1014.7
20260507142003 55 330 4.0 8.0 0.00 0.00 0.00 58 1014.8
20260507141503 55 346 4.0 8.0 0.00 0.00 0.00 55 1014.7
20260507141003 55 25 4.0 7.0 0.00 0.00 0.00 59 1014.7
20260507140503 55 353 4.0 8.0 0.00 0.00 0.00 56 1014.8
20260507140003 55 338 4.0 8.0 0.00 0.00 0.00 59 1014.8
20260507135503 55 346 4.0 8.0 0.00 0.00 0.00 63 1014.9
20260507135003 54 3 4.0 9.0 0.00 0.00 0.00 60 1014.9
20260507134503 54 28 5.0 9.0 0.00 0.00 0.00 62 1014.9
20260507134003 54 20 4.0 9.0 0.00 0.00 0.00 60 1014.9
20260507133503 54 14 3.0 6.0 0.00 0.00 0.00 61 1015.0
20260507133003 54 360 3.0 7.0 0.00 0.00 0.00 62 1014.9
20260507132503 53 352 4.0 7.0 0.00 0.00 0.00 65 1014.9
20260507132003 53 345 3.0 7.0 0.00 0.00 0.00 62 1014.8
20260507131503 53 353 3.0 7.0 0.00 0.00 0.00 67 1014.7
20260507131003 52 29 4.0 8.0 0.00 0.00 0.00 71 1014.7
20260507130503 52 28 5.0 10.0 0.00 0.00 0.00 66 1014.8
20260507130003 51 18 5.0 10.0 0.00 0.00 0.00 67 1014.8
20260507125524 51 10 4.0 9.0 0.00 0.00 0.00 68 1014.8
20260507125003 51 8 4.0 9.0 0.00 0.00 0.00 70 1014.9